Flag for Poland Weather past 2 weeks in Ruda Śląska, Poland

Now
48 °F

Scattered clouds.


Feels Like: 42 °F
Forecast: 36 / 49 °F
Wind: 15 mph from Southwest

Location: Katowice Airport

Current Time: Mar 30, 2015 at 1:25:36 PM

Latest Report: Mar 30, 2015 at 1:00 PM


Visibility: N/A

Pressure: 29.30 "Hg

Humidity: 58%

Dew point: 34 °F

Location of Ruda ŚląskaLocation

Historic Weather in Ruda Śląska — Graph

°F

Ruda Śląska temperature yesterday

Maximum temperature yesterday: 50 °F (at 1:30 PM)
Minimum temperature yesterday: 28 °F (at 5:30 AM)
Average temperature yesterday: 42 °F

Past Weeks' High & Low Weather Summary

 TemperatureHumidityPressure
High66 °F (Mar 25, 2:00 PM)100% (Mar 20, 2:30 AM)30.57 "Hg (Mar 20, 2:30 AM)
Low19 °F (Mar 23, 5:00 AM)25% (Mar 23, 1:30 PM)29.24 "Hg (Mar 30, 5:00 AM)
Average43 °F68%30.08 "Hg
* Reported Mar 15 11:00 AM — Mar 30 12:00 Noon, Ruda Śląska, Weather by CustomWeather, © 2015

Note: Actual official high and low records may vary slightly from our data, if they occured in-between our weather recording intervals... More about our weather records

Advertising

Ruda Śląska weather history for previous 24 hours

 ConditionsComfort  
Time TempWeatherWind HumidityBarometerVisibility
12:00 PM
Mon, Mar 30
46 °FSprinkles. Scattered clouds.10 mph76%29.33 "HgN/A
11:30 AM45 °FSprinkles. Scattered clouds.15 mph76%29.33 "HgN/A
11:00 AM48 °FPartly sunny.17 mph66%29.33 "HgN/A
10:30 AM48 °FScattered clouds.17 mph66%29.33 "HgN/A
10:00 AM46 °FBroken clouds.18 mph71%29.33 "HgN/A
9:30 AM46 °FScattered clouds.13 mph76%29.33 "HgN/A
9:00 AM46 °FScattered clouds.14 mph71%29.33 "HgN/A
8:30 AM45 °FScattered clouds.14 mph76%29.33 "HgN/A
8:00 AM45 °FScattered clouds.13 mph76%29.33 "HgN/A
7:30 AM45 °FScattered clouds.15 mph76%29.30 "HgN/A
7:00 AM45 °FSprinkles. Partly cloudy.18 mph81%29.30 "HgN/A
6:30 AM46 °FSprinkles. Partly cloudy.16 mph87%29.27 "HgN/A
6:00 AM48 °FRain showers. Partly cloudy.16 mph87%29.27 "Hg4 mi
5:30 AM46 °FRain showers. Partly cloudy.12 mph93%29.24 "HgN/A
5:00 AM46 °FSprinkles. Passing clouds.10 mph93%29.24 "HgN/A
4:30 AM46 °FSprinkles. Partly cloudy.14 mph93%29.27 "HgN/A
4:00 AM46 °FSprinkles. Partly cloudy.14 mph93%29.30 "HgN/A
3:30 AM46 °FSprinkles. Passing clouds.14 mph93%29.30 "HgN/A
3:00 AM48 °FSprinkles. Partly cloudy.15 mph87%29.33 "HgN/A
2:30 AM48 °FLight rain. Partly cloudy.14 mph82%29.33 "HgN/A
2:00 AM48 °FLight rain. Partly cloudy.12 mph82%29.36 "Hg5 mi
1:00 AM46 °FPartly cloudy.10 mph93%29.39 "Hg5 mi
12:30 AM46 °FLight rain. Partly cloudy.9 mph93%29.42 "Hg4 mi
12:00 AM46 °FLight rain. Fog.9 mph93%29.45 "Hg3 mi
11:30 PM
Sun, Mar 29
46 °FLight rain. Fog.10 mph93%29.45 "Hg3 mi
11:00 PM46 °FLight rain. Fog.9 mph93%29.47 "Hg3 mi
10:30 PM46 °FLight rain. Partly cloudy.9 mph87%29.50 "Hg4 mi
10:00 PM46 °FLight rain. Passing clouds.9 mph87%29.50 "Hg4 mi
9:30 PM46 °FLight rain. Passing clouds.12 mph87%29.53 "Hg4 mi
9:00 PM46 °FLight rain. Passing clouds.9 mph87%29.53 "Hg4 mi
8:30 PM46 °FPassing clouds.9 mph82%29.56 "HgN/A
8:00 PM46 °FPartly sunny.12 mph82%29.56 "HgN/A
7:30 PM48 °FBroken clouds.9 mph76%29.56 "HgN/A
7:00 PM48 °FPartly sunny.8 mph76%29.59 "HgN/A
6:30 PM48 °FPartly sunny.8 mph76%29.59 "HgN/A
6:00 PM48 °FScattered clouds.9 mph76%29.59 "HgN/A
5:30 PM48 °FBroken clouds.10 mph71%29.59 "HgN/A
5:00 PM48 °FPartly sunny.10 mph71%29.62 "HgN/A
4:30 PM48 °FPartly sunny.10 mph71%29.62 "HgN/A
4:00 PM50 °FLight rain. Partly sunny.13 mph67%29.62 "HgN/A
3:30 PM50 °FScattered clouds.12 mph67%29.65 "HgN/A
3:00 PM48 °FScattered clouds.14 mph71%29.65 "HgN/A
2:30 PM48 °FPartly sunny.15 mph66%29.68 "HgN/A
2:00 PM50 °FPartly sunny.12 mph62%29.68 "HgN/A
1:30 PM50 °FScattered clouds.13 mph58%29.68 "HgN/A
1:00 PM48 °FSunny.13 mph62%29.71 "Hg10 mi
Weather by CustomWeather, © 2015

See weather overviewHow to use our weather pages